Weather reports worldwide

Advertisment
Aberdeen/Dyce, United Kingdom (3091): temperature & dewpoint: 21.06.2017 06:00:00 - 27.06.2017 06:00:00 (BST)Aberdeen/Dyce, United Kingdom (3091): temperature 5cm: 21.06.2017 06:00:00 - 27.06.2017 06:00:00 (BST)Aberdeen/Dyce, United Kingdom (3091): temperature -20cm & temperature -100cm: 21.06.2017 06:00:00 - 27.06.2017 06:00:00 (BST)Aberdeen/Dyce, United Kingdom (3091): wind speed & gusts: 21.06.2017 06:00:00 - 27.06.2017 06:00:00 (BST)Aberdeen/Dyce, United Kingdom (3091): wind direction: 21.06.2017 06:00:00 - 27.06.2017 06:00:00 (BST)Aberdeen/Dyce, United Kingdom (3091): reduced air pressure: 21.06.2017 06:00:00 - 27.06.2017 06:00:00 (BST)Aberdeen/Dyce, United Kingdom (3091): visibility: 21.06.2017 06:00:00 - 27.06.2017 06:00:00 (BST)Aberdeen/Dyce, United Kingdom (3091): sunshine duration: 21.06.2017 06:00:00 - 27.06.2017 06:00:00 (BST)Aberdeen/Dyce, United Kingdom (3091): precipitation: 21.06.2017 06:00:00 - 27.06.2017 06:00:00 (BST)
Date & Time tt [°C] td [°C] tt 5cm [°C] tt -20cm [°C] tt -100cm [°C] ff [km/h] ff [kn] fx [km/h] fx [kn] dd ppp [hPa] vv [km] sd [min] rr [mm]
27.06.2017 06:00:00 10,4 7,7 - - - 13 7 - - SE 1013,2 10 0 0,0
27.06.2017 05:00:00 10,1 7,3 - - - 11 6 - - ESE 1013,4 10 0 0,0
27.06.2017 04:00:00 10,1 7,6 - - - 11 6 - - ESE 1013,8 10 0 0,0
27.06.2017 03:00:00 10,0 7,6 - - - 8 4 - - ESE 1014,2 10 0 0,0
27.06.2017 02:00:00 10,1 7,2 - - - 8 4 - - E 1014,5 10 0 0,0
27.06.2017 01:00:00 10,2 7,1 - - - 8 4 - - E 1014,8 10 - 0,0
27.06.2017 00:00:00 10,3 7,0 - - - 8 4 - - ESE 1015,2 10 0 0,0
26.06.2017 23:00:00 10,5 6,9 - - - 8 4 - - E 1015,4 10 0 0,0
26.06.2017 22:00:00 10,7 6,2 - - - 8 4 - - E 1015,3 10 0 0,0
26.06.2017 21:00:00 10,8 6,6 - - - 8 4 - - SE 1015,3 10 0 0,0
26.06.2017 20:00:00 11,0 6,5 - - - 8 4 - - ESE 1015,3 10 0 0,0
26.06.2017 19:00:00 11,2 6,3 - - - 11 6 - - ESE 1015,2 10 0 0,0
26.06.2017 18:00:00 12,0 5,6 - - - 13 7 - - SE 1015,1 50 0 0,0
26.06.2017 17:00:00 12,0 5,9 - - - 15 8 - - ESE 1015,1 10 6 0,0
26.06.2017 16:00:00 11,1 7,6 - - - 13 7 - - ESE 1015,2 10 0 0,0
26.06.2017 15:00:00 11,8 7,8 - - - 16 9 - - E 1014,9 10 6 0,0
26.06.2017 14:00:00 13,4 7,0 - - - 9 5 - - NNW 1014,6 10 0 0,0
26.06.2017 13:00:00 13,0 7,0 - - - 5 3 - - - 1014,4 10 0 0,0
26.06.2017 12:00:00 12,3 6,7 - - - 15 8 - - N 1014,4 10 0 0,0
26.06.2017 11:00:00 11,4 7,1 - - - 18 10 - - N 1014,2 10 0 0,0
26.06.2017 10:00:00 12,8 7,2 - 14,7 13,0 13 7 - - NNW 1013,4 30 18 0,0
26.06.2017 09:00:00 12,0 7,0 - - - 13 7 - - NNW 1013,0 30 36 0,0
26.06.2017 08:00:00 12,3 7,3 - - - 16 9 - - WNW 1012,6 10 36 0,0
26.06.2017 07:00:00 11,5 7,1 - - - 13 7 - - WNW 1012,3 10 42 0,0
26.06.2017 06:00:00 10,1 6,6 - - - 9 5 - - W 1011,9 10 24 0,0
26.06.2017 05:00:00 9,5 6,4 - - - 13 7 - - NW 1011,8 10 0 0,0
26.06.2017 04:00:00 9,6 6,4 - - - 11 6 - - W 1011,6 10 0 0,0
26.06.2017 03:00:00 10,2 6,5 - - - 15 8 - - WNW 1011,4 10 0 0,0
26.06.2017 02:00:00 10,4 6,4 - - - 13 7 - - W 1011,2 10 0 0,0
26.06.2017 01:00:00 10,5 6,4 - - - 15 8 - - W 1010,7 10 - 0,0
26.06.2017 00:00:00 9,8 6,1 - - - 9 5 - - W 1010,3 10 0 0,0
25.06.2017 23:00:00 11,0 6,4 - - - 13 7 - - NW 1009,6 10 0 0,0
25.06.2017 22:00:00 12,0 6,3 - - - 18 10 - - NW 1009,0 10 0 0,0
25.06.2017 21:00:00 12,7 5,6 - - - 22 12 - - NW 1008,6 10 24 0,0
25.06.2017 20:00:00 13,8 5,7 - - - 21 11 - - NNW 1007,3 10 48 0,0
25.06.2017 19:00:00 14,7 6,3 - - - 21 11 - - NW 1006,9 10 30 0,0
25.06.2017 18:00:00 14,2 5,5 - - - 28 15 46 25 NNW 1006,2 10 36 0,0
25.06.2017 17:00:00 14,4 6,1 - - - 29 16 - - NNW 1005,9 10 24 0,0
25.06.2017 16:00:00 15,9 5,0 - - - 28 15 - - NNW 1005,1 10 42 0,0
25.06.2017 15:00:00 15,6 5,8 - - - 28 15 - - NNW 1004,7 10 12 0,0
25.06.2017 14:00:00 15,5 5,0 - - - 22 12 - - NW 1004,2 10 18 0,0
25.06.2017 13:00:00 14,9 6,3 - - - 15 8 - - WNW 1004,1 10 18 0,0
25.06.2017 12:00:00 15,7 6,6 - - - 22 12 - - WNW 1003,7 10 18 0,0
25.06.2017 11:00:00 14,4 5,8 - - - 18 10 50 27 W 1003,5 10 6 0,0
25.06.2017 10:00:00 13,9 5,4 - 15,0 13,0 24 13 54 29 WNW 1003,0 10 36 0,0
25.06.2017 09:00:00 13,9 6,3 - - - 26 14 52 28 WNW 1002,6 10 36 0,0
25.06.2017 08:00:00 12,5 5,9 - - - 24 13 - - W 1002,5 10 30 0,0
25.06.2017 07:00:00 11,4 5,9 - - - 15 8 - - W 1002,3 10 42 0,0
25.06.2017 06:00:00 10,8 5,4 - - - 13 7 - - W 1001,9 10 12 0,0
25.06.2017 05:00:00 10,8 5,8 - - - 13 7 - - W 1001,6 10 0 0,0
25.06.2017 04:00:00 10,4 6,2 - - - 16 9 - - W 1001,3 10 0 0,0
25.06.2017 03:00:00 11,2 5,7 - - - 24 13 - - W 1001,0 10 0 0,0
25.06.2017 02:00:00 11,2 5,0 - - - 15 8 - - WSW 1000,7 10 0 0,0
25.06.2017 01:00:00 10,2 4,1 - - - 9 5 - - SSW 1000,8 10 - 0,0
25.06.2017 00:00:00 10,6 4,0 - - - 11 6 - - WSW 1000,7 10 0 0,0
24.06.2017 23:00:00 11,7 3,9 - - - 15 8 50 27 WSW 1000,8 10 0 0,0
24.06.2017 22:00:00 12,8 3,6 - - - 21 11 - - WSW 1000,8 10 18 0,0
24.06.2017 21:00:00 13,5 4,9 - - - 15 8 46 25 W 1000,9 10 24 0,0
24.06.2017 20:00:00 14,3 5,8 - - - 18 10 - - WSW 1000,5 10 18 0,0
24.06.2017 19:00:00 15,5 5,4 - - - 24 13 54 29 WSW 1000,1 10 12 0,0
24.06.2017 18:00:00 15,8 4,7 - - - 26 14 52 28 W 1000,4 10 18 0,0
24.06.2017 17:00:00 16,8 5,5 - - - 26 14 52 28 W 1000,4 10 18 0,0
24.06.2017 16:00:00 17,0 5,1 - - - 28 15 55 30 W 1000,8 35 36 0,0
24.06.2017 15:00:00 17,2 5,9 - - - 29 16 50 27 W 1001,1 50 30 0,0
24.06.2017 14:00:00 16,7 5,3 - - - 31 17 48 26 W 1001,5 35 18 0,0
24.06.2017 13:00:00 16,4 5,0 - - - 26 14 52 28 W 1001,7 10 12 0,0
24.06.2017 12:00:00 16,0 3,8 - - - 26 14 50 27 WSW 1001,8 10 30 0,0
24.06.2017 11:00:00 15,2 5,5 - - - 21 11 - - WSW 1002,2 10 18 0,0
24.06.2017 10:00:00 15,1 4,9 - 15,2 12,9 21 11 - - WSW 1002,5 10 18 0,0
24.06.2017 09:00:00 13,3 6,8 - - - 13 7 - - SSW 1002,9 10 18 0,0
24.06.2017 08:00:00 13,6 5,7 - - - 16 9 - - WSW 1003,2 10 42 0,0
24.06.2017 07:00:00 12,3 5,8 - - - 13 7 - - SSE 1003,3 10 36 0,0
24.06.2017 06:00:00 10,4 5,8 - - - 5 3 - - - 1003,8 10 0 0,0
24.06.2017 05:00:00 8,7 5,5 - - - 8 4 - - ESE 1004,1 10 0 0,0
24.06.2017 04:00:00 9,4 4,6 - - - 11 6 - - SSW 1004,0 10 0 0,0
24.06.2017 03:00:00 10,1 4,7 - - - 8 4 - - SSW 1004,6 10 0 0,0
24.06.2017 02:00:00 10,0 5,0 - - - 5 3 - - - 1004,8 10 0 0,0
24.06.2017 01:00:00 11,1 5,1 - - - 9 5 - - W 1005,1 10 - 0,0
24.06.2017 00:00:00 12,2 5,0 - - - 11 6 - - W 1005,2 10 0 0,0
23.06.2017 23:00:00 13,1 5,2 - - - 13 7 - - W 1005,2 10 0 0,0
23.06.2017 22:00:00 14,2 6,0 - - - 8 4 - - WNW 1005,0 10 30 0,0
23.06.2017 21:00:00 16,2 5,6 - - - 13 7 - - WNW 1005,0 10 60 0,0
23.06.2017 20:00:00 17,6 6,0 - - - 21 11 - - WNW 1004,6 10 60 0,0
23.06.2017 19:00:00 18,4 6,3 - - - 15 8 - - WNW 1004,3 10 60 0,0
23.06.2017 18:00:00 18,5 5,5 - - - 18 10 - - WNW 1004,2 10 54 0,0
23.06.2017 17:00:00 19,2 5,6 - - - 21 11 - - WNW 1004,0 10 54 0,0
23.06.2017 16:00:00 19,9 6,8 - - - 21 11 - - WNW 1003,9 10 60 0,0
23.06.2017 15:00:00 19,7 6,6 - - - 24 13 - - W 1003,3 10 54 0,0
23.06.2017 14:00:00 18,7 7,7 - - - 16 9 - - WNW 1002,8 10 12 0,0
23.06.2017 13:00:00 18,8 8,6 - - - 22 12 - - W 1002,1 10 0 0,0
23.06.2017 12:00:00 19,1 11,5 - - - 22 12 - - W 1001,3 10 24 0,0
23.06.2017 11:00:00 18,0 13,0 - - - 22 12 54 29 SW 1000,8 10 60 0,0
23.06.2017 10:00:00 17,5 12,9 - 15,0 12,9 24 13 50 27 SW 1000,7 10 54 0,0
23.06.2017 09:00:00 16,0 12,1 - - - 28 15 46 25 SSW 1001,1 10 60 0,0
23.06.2017 08:00:00 15,4 11,7 - - - 13 7 - - SW 1000,8 10 60 0,0
23.06.2017 07:00:00 14,1 11,4 - - - 26 14 50 27 SSW 1000,6 10 60 0,0
23.06.2017 06:00:00 12,9 10,7 - - - 15 8 - - SSW 1001,4 10 0 0,0
23.06.2017 05:00:00 12,5 10,9 - - - 16 9 - - S 1002,4 10 0 0,0
23.06.2017 04:00:00 12,4 10,7 - - - 13 7 - - S 1003,0 10 0 0,0
23.06.2017 03:00:00 12,3 11,0 - - - 13 7 - - S 1004,2 10 0 0,8
23.06.2017 02:00:00 12,2 11,0 - - - 11 6 - - SSW 1005,2 10 0 0,6
23.06.2017 01:00:00 12,4 11,0 - - - 9 5 - - SW 1006,0 10 - 0,0
23.06.2017 00:00:00 11,7 10,7 - - - 9 5 - - SSE 1006,0 10 0 0,2
22.06.2017 23:00:00 12,0 10,1 - - - 5 3 - - - 1006,9 10 0 0,0
22.06.2017 22:00:00 12,4 10,3 - - - 11 6 - - S 1007,4 10 0 0,0
22.06.2017 21:00:00 12,6 9,7 - - - 9 5 - - SSE 1007,7 10 0 0,0
22.06.2017 20:00:00 12,6 9,8 - - - 9 5 - - S 1008,3 10 0 0,0
22.06.2017 19:00:00 12,6 10,2 - - - 11 6 - - ESE 1008,3 10 0 0,0
22.06.2017 18:00:00 12,0 11,1 - - - 8 4 - - - 1008,7 9 0 0,2
22.06.2017 17:00:00 12,2 10,6 - - - 9 5 - - SSE 1008,7 6 0 0,0
22.06.2017 16:00:00 13,5 10,4 - - - 11 6 - - ESE 1008,7 10 0 0,0
22.06.2017 15:00:00 14,7 11,2 - - - 13 7 - - ESE 1008,6 10 24 0,0
22.06.2017 14:00:00 15,5 12,7 - - - 8 4 - - - 1008,5 10 12 0,0
22.06.2017 13:00:00 13,4 11,3 - - - 9 5 - - NNE 1008,8 10 0 0,0
22.06.2017 12:00:00 13,3 11,5 - - - 13 7 - - NE 1008,9 10 0 0,0
22.06.2017 11:00:00 13,2 12,2 - - - 16 9 - - N 1008,6 10 0 0,0
22.06.2017 10:00:00 13,2 12,5 - 15,2 12,7 15 8 - - NNE 1008,3 3,6 0 0,0
22.06.2017 09:00:00 13,7 12,6 - - - 16 9 - - NNE 1007,7 10 0 0,0
22.06.2017 08:00:00 15,4 13,2 - - - 16 9 - - N 1007,4 10 6 0,0
22.06.2017 07:00:00 15,1 13,1 - - - 21 11 - - NNW 1007,0 10 6 0,0
22.06.2017 06:00:00 15,0 13,5 - - - 13 7 - - NNW 1006,8 10 0 0,0
22.06.2017 05:00:00 15,2 14,0 - - - 9 5 - - N 1006,7 10 0 0,0
22.06.2017 04:00:00 15,8 15,2 - - - 15 8 - - N 1006,8 8 0 0,0
22.06.2017 03:00:00 16,3 15,9 - - - 5 3 - - - 1006,9 5 0 0,0
22.06.2017 02:00:00 16,5 15,9 - - - 4 2 - - - 1007,0 8 0 1,2
22.06.2017 01:00:00 15,8 15,4 - - - 8 4 - - WSW 1007,4 5 - 1,6
22.06.2017 00:00:00 15,4 14,9 - - - 9 5 - - SE 1007,8 8 0 0,0
21.06.2017 23:00:00 14,9 14,6 - - - 13 7 - - SSE 1007,7 7 0 0,4
21.06.2017 22:00:00 15,0 14,2 - - - 18 10 - - S 1007,8 8 0 0,4
21.06.2017 21:00:00 15,5 15,0 - - - 16 9 - - S 1008,7 10 0 1,2
21.06.2017 20:00:00 15,2 14,5 - - - 5 3 - - - 1009,9 5 0 4,8
21.06.2017 19:00:00 16,2 14,8 - - - 13 7 - - SW 1010,4 5 0 1,0
21.06.2017 18:00:00 15,9 14,5 - - - 13 7 - - SSE 1009,7 10 0 0,0
21.06.2017 17:00:00 16,5 14,9 - - - 11 6 - - S 1009,9 10 0 0,0
21.06.2017 16:00:00 16,4 14,1 - - - 21 11 - - S 1010,7 10 0 0,0
21.06.2017 15:00:00 14,9 13,5 - - - 24 13 - - S 1011,6 10 0 0,2
21.06.2017 14:00:00 13,8 12,6 - - - 18 10 - - S 1012,7 8 0 0,0
21.06.2017 13:00:00 14,0 11,7 - - - 24 13 - - S 1013,3 16 0 0,0
21.06.2017 12:00:00 14,4 11,7 - - - 26 14 46 25 S 1013,9 10 0 0,0
21.06.2017 11:00:00 14,4 11,2 - - - 24 13 46 25 S 1014,3 10 0 0,0
21.06.2017 10:00:00 14,3 11,4 14,4 15,2 12,7 26 14 - - S 1014,9 10 0 0,0
21.06.2017 09:00:00 14,4 11,5 - - - 24 13 - - SSE 1015,8 10 0 0,0
21.06.2017 08:00:00 13,4 11,3 - - - 15 8 - - S 1016,2 10 0 0,0
21.06.2017 07:00:00 13,2 11,3 - - - 21 11 - - S 1017,0 10 0 0,0
21.06.2017 06:00:00 12,9 11,1 - - - 18 10 - - S 1017,7 10 0 0,0

tt = temperature
td = dewpoint
tt 5cm = temperature 5cm
tt -20cm = temperature -20cm
tt -100cm = temperature -100cm
ff = wind speed
fx = gusts
dd = wind direction
ppp = reduced air pressure
vv = visibility
sd = sunshine duration
rr = precipitation

Next stations